Change the Weather History Date:

Tuesday, April 30, 2013

  Actual Average Record
Temperature  
Mean Temperature 59 °F 51 °F  
Max Temperature 73 °F 63 °F 80 °F (2004)
Min Temperature 45 °F 39 °F 25 °F (2012)
Degree Days  
Heating Degree Days 6 15  
Month to date heating degree days 592 588  
Since 1 July heating degree days 6393 6823  
Cooling Degree Days 0 0  
Month to date cooling degree days 0 3  
Year to date cooling degree days 0 3  
Growing Degree Days 8 (Base 50)    
Moisture  
Dew Point 39 °F    
Average Humidity 59    
Maximum Humidity 92    
Minimum Humidity 25    
Precipitation  
Precipitation 0.02 in 0.12 in 0.57 in (2014)
Month to date precipitation 3.37 3.27  
Year to date precipitation 7.31 11.41  
Sea Level Pressure  
Sea Level Pressure 30.26 in    
Wind  
Wind Speed 2 mph (WSW)    
Max Wind Speed 15 mph    
Max Gust Speed 18 mph    
Visibility 10 miles    
Events Rain    
T = Trace of Precipitation, MM = Missing Value Source: NWS Daily Summary

Daily Weather History Graph

Daily Weather History Graph

Search for Another Location

Airport or City:

Trip Planner

Search our weather history database for the weather conditions in past years. The results will help you decide how hot, cold, wet, or windy it might be!

Date:

Astronomy

Apr. 30, 2013 Rise Set
Actual Time 5:48 AM EDT 7:52 PM EDT
Civil Twilight 5:17 AM EDT 8:23 PM EDT
Nautical Twilight 4:39 AM EDT 9:01 PM EDT
Astronomical Twilight 3:57 AM EDT 9:43 PM EDT
Moon 12:15 AM EDT (4/30) 10:12 AM EDT (4/30)
Length of Visible Light 15h 06m
Length of Day
14h 04m
Waning Gibbous, 70% of the Moon is Illuminated
Apr 30
Waning Gibbous
May 2
Last Quarter
May 9
New
May 18
First Quarter
May 25
Full

Hourly Weather History & Observations

Time (EDT) Temp. Dew Point Humidity Pressure Visibility Wind Dir Wind Speed Gust Speed Precip Events Conditions
12:54 AM 46.0 °F 42.1 °F 86% 30.23 in 8.0 mi Calm Calm - 0.03 in Rain Light Rain
1:54 AM 45.0 °F 42.1 °F 90% 30.23 in 10.0 mi Calm Calm - 0.02 in   Overcast
2:54 AM 45.0 °F 42.1 °F 90% 30.22 in 10.0 mi Calm Calm - N/A   Overcast
3:54 AM 46.0 °F 42.1 °F 86% 30.24 in 10.0 mi Calm Calm - N/A   Overcast
4:54 AM 46.0 °F 43.0 °F 89% 30.25 in 10.0 mi Calm Calm - N/A   Overcast
5:54 AM 46.0 °F 42.1 °F 86% 30.26 in 10.0 mi Calm Calm - N/A   Overcast
6:54 AM 46.9 °F 42.1 °F 83% 30.28 in 10.0 mi Calm Calm - N/A   Overcast
7:54 AM 50.0 °F 42.1 °F 74% 30.29 in 10.0 mi Calm Calm - N/A   Overcast
8:54 AM 53.1 °F 37.0 °F 55% 30.30 in 10.0 mi Calm Calm - N/A   Overcast
9:54 AM 55.9 °F 37.9 °F 51% 30.30 in 10.0 mi Calm Calm - N/A   Overcast
10:54 AM 62.1 °F 39.0 °F 43% 30.28 in 10.0 mi Calm Calm - N/A   Overcast
11:54 AM 64.9 °F 39.0 °F 39% 30.26 in 10.0 mi Calm Calm - N/A   Overcast
12:54 PM 69.1 °F 37.0 °F 31% 30.24 in 10.0 mi Variable 4.6 mph - 0.01 in   Mostly Cloudy
1:54 PM 71.1 °F 35.1 °F 27% 30.23 in 10.0 mi SW 8.1 mph 18.4 mph N/A   Partly Cloudy
2:54 PM 72.0 °F 34.0 °F 25% 30.23 in 10.0 mi Variable 3.5 mph - N/A   Partly Cloudy
3:54 PM 72.0 °F 39.9 °F 31% 30.22 in 10.0 mi Variable 6.9 mph - N/A   Scattered Clouds
4:54 PM 72.0 °F 39.9 °F 31% 30.23 in 10.0 mi WNW 4.6 mph - N/A   Mostly Cloudy
5:54 PM 71.1 °F 39.9 °F 32% 30.24 in 10.0 mi Variable 6.9 mph - N/A   Overcast
6:54 PM 69.1 °F 37.0 °F 31% 30.25 in 10.0 mi WNW 3.5 mph - N/A   Overcast
7:54 PM 66.9 °F 37.0 °F 33% 30.25 in 10.0 mi West 4.6 mph - N/A   Overcast
8:54 PM 62.1 °F 39.0 °F 43% 30.27 in 10.0 mi Calm Calm - N/A   Scattered Clouds
10:54 PM 59.0 °F 30.9 °F 35% 30.28 in 10.0 mi Variable 3.5 mph - N/A   Clear
11:54 PM 53.1 °F 30.9 °F 43% 30.30 in 10.0 mi SE 5.8 mph - N/A   Clear